STARLINK-32948, 63123

Orbit data source: Space-Track

STARLINK-32948, 63123 is a payload satellite owned by SpaceX/Seattle (US) in LEO that was launched on Thu, 27 Feb 2025 UTC via an FALCON 9 launch vehicle from the Air Force Eastern Test Range (AFETR). Payload-class satellites include a variety of spacecraft equipped with specific instruments for various scientific and technological missions. These include communications satellites like Starlink; space stations such as the ISS; scientific satellites like the Hubble; Earth observation satellites from companies like Planet Labs, Umbra, and HawkEye 360; GPS; miniature CubeSats for education and research; and military/defense satellites.

Loading next visibility...
Identifier
63123, 2025-039V
Orbit
LEO
Last TLE update
20 hours ago
Origin
Manufacturer
SpaceX/Seattle
Mission
Operational Commercial Communications
Bus & Motor
STARLINK V2M, Unknown motor
Mass
730 kg wet, ~700 kg dry
Launch date (UTC)
2025-02-27 (2 months ago)
Launch vehicle
FALCON 9
Launch site
Air Force Eastern Test Range (AFETR)
Object type
Payload
Rocket body
Debris
Shape & HBR
Box + 2 Pan, 29 m
Radar Cross Section
33.884 m², Large (>1 m²)

Expand to show TLE details & history

TLE from 20 hours ago
0 STARLINK-32948
1 63123U 25039V   25128.44313528  .00000062  00000-0  11782-4 0  9993
2 63123  42.9982 296.6176 0001018 265.8501  94.2234 15.27572279 11389
Epoch: 2025-05-08T10:38Z
Definitive object data (Epoch: 2025-05-08T10:38:06.888Z)
Latitude
-0.00002°
Longitude
-89.42469°
Altitude
482.899 km
Speed
7.626 km/s
True Right ascension
19h 46m 28s
True Declination
0° 00' 00"
Sunlit
Object was in daylight at TLE epoch
Visualization TLE readout
Latitude
6.79756°
Longitude
-86.93396°
Altitude
482.324 km
Speed
7.627 km/s
Apparent Right ascension
22h 43m 09s
Apparent Declination
-25° 08' 56"
Sunlit
Object is in daylight
Visualization observer readout
Local Sidereal Time
15:13:41
Azimuth
97.144° ESE
Elevation
-32.472°
Doppler factor
1
Orbital elements
Apogee altitude
485.716 km
Perigee altitude
484.319 km
Semi-major axis
6,863.155 km
Eccentricity
0.0001018
Inclination
42.9982°
RAAN
296.6176°
Arg. of periapsis
265.8501°
True anomaly
94.23503°
Mean anomaly
94.2234°
Eccentric anomaly
94.22922°
Mean motion
3.81731 °/min
BSTAR
0.000011782
Orbital period
94.31 mins
Loading maneuver chart data...
Loading SW <> Apogee altitude chart data...
Loading historical data...
Loading historical data...
Loading historical data...
Loading historical data...
Loading historical data...
Loading historical data...
Loading historical data...

STARLINK-32948 Visibility forecast

Observer location: undefined°, undefined°

Span
Click to sort rows by Start time (UTC) header in descending order
Start Az.
Max El. time (UTC)
Max El. Az.
Max El.
End time (UTC)
End Az.
4 mins2025-05-09 13:29:44.914Z185.217° SSW2025-05-09 13:31:44.914Z150.422° SSE17.584°2025-05-09 13:33:44.914Z110.888° ESE
5 mins2025-05-09 15:08:44.914Z242.385° WSW2025-05-09 15:10:44.914Z128.032° SE44.27°2025-05-09 15:13:44.914Z73.645° E
5 mins2025-05-09 16:47:44.914Z289.54° WNW2025-05-09 16:49:44.914Z359.143° N38.314°2025-05-09 16:52:44.914Z72.011° E
5 mins2025-05-09 18:26:44.914Z292.972° NW2025-05-09 18:28:44.914Z348.919° N43.52°2025-05-09 18:31:44.914Z98.731° ESE
5 mins2025-05-09 20:05:44.914Z260.712° W2025-05-09 20:07:44.914Z209.002° SW27.734°2025-05-09 20:10:44.914Z149.365° SSE
|